GW3775 Weather Reports


time (UTC)temp
C
wind
direction
speed
KPH
gust
KPH
rain 1hr
cm
rain 24hr
cm
rain mn
cm
humidity
%
barometer
mb
20260504060104 13 74 0.0 3.2 0.00 0.18 0.00 96 1015.0
20260504050549 13 109 0.0 1.6 0.00 0.18 0.00 96 1015.0
20260504045549 13 0 0.0 1.6 0.00 0.18 0.00 96 1014.9
20260504045401 13 109 0.0 1.6 0.00 0.18 0.00 96 1014.9
20260504044557 13 0 0.0 0.0 0.00 0.18 0.00 96 1014.9
20260504044049 13 0 0.0 1.6 0.00 0.18 0.00 96 1014.8
20260504043809 13 0 0.0 1.6 0.00 0.18 0.00 96 1014.8
20260504040549 13 0 0.0 1.6 0.00 0.18 0.00 96 1015.1
20260504040054 13 0 0.0 1.6 0.00 0.18 0.00 96 1015.3
20260504035549 13 109 0.0 3.2 0.00 0.18 0.00 96 1015.2
20260504035049 13 0 0.0 3.2 0.00 0.18 0.00 96 1015.1
20260504034556 13 58 0.0 3.2 0.00 0.18 0.00 96 1015.2
20260504034052 13 0 0.0 3.2 0.00 0.18 0.00 96 1015.3
20260504033549 13 0 0.0 6.4 0.00 0.18 0.00 96 1015.4
20260504033049 13 26 3.2 6.4 0.00 0.18 0.00 95 1015.3
20260504032549 13 34 3.2 6.4 0.00 0.18 0.00 95 1015.4
20260504032049 13 344 3.2 6.4 0.00 0.18 0.00 95 1015.4
20260504031552 13 14 1.6 6.4 0.00 0.18 0.00 95 1015.4
20260504031048 13 0 0.0 3.2 0.00 0.18 0.00 95 1015.7
20260504030552 13 0 0.0 3.2 0.00 0.18 0.00 95 1015.6
20260504030051 13 0 0.0 6.4 0.00 0.18 0.00 95 1015.5
20260504025547 13 325 1.6 6.4 0.00 0.18 0.00 95 1015.7
20260504025048 13 289 3.2 4.8 0.00 0.18 0.00 95 1015.7
20260504024552 13 0 0.0 4.8 0.00 0.18 0.00 95 1015.8
20260504024050 13 280 1.6 4.8 0.00 0.18 0.00 95 1015.7
20260504023548 13 199 1.6 4.8 0.00 0.18 0.00 95 1015.7
20260504023049 13 214 1.6 4.8 0.00 0.18 0.00 95 1015.8
20260504022550 13 0 0.0 4.8 0.00 0.18 0.00 95 1015.7
20260504022049 13 0 0.0 4.8 0.00 0.18 0.00 95 1015.9
20260504021554 13 80 1.6 4.8 0.00 0.18 0.00 95 1015.8
20260504021052 13 98 1.6 3.2 0.00 0.18 0.00 95 1015.8
20260504020552 13 98 0.0 1.6 0.00 0.18 0.00 95 1015.9
20260504020058 13 0 0.0 1.6 0.00 0.18 0.00 95 1015.8
20260504015549 13 0 0.0 1.6 0.00 0.18 0.00 95 1016.0
20260504015048 13 0 0.0 1.6 0.00 0.18 0.00 95 1015.9
20260504014559 13 0 0.0 4.8 0.00 0.18 0.00 95 1015.9
20260504014049 13 0 0.0 4.8 0.00 0.18 0.00 95 1015.7
20260504013548 13 67 1.6 6.4 0.00 0.18 0.00 95 1015.8
20260504013108 13 83 3.2 6.4 0.00 0.18 0.00 95 1015.7
20260504012547 13 69 1.6 4.8 0.00 0.18 0.00 95 1015.9
20260504012049 13 104 0.0 3.2 0.00 0.18 0.00 95 1015.7
20260504011548 13 0 0.0 1.6 0.00 0.18 0.00 95 1015.8
20260504011048 13 0 0.0 1.6 0.00 0.18 0.00 95 1015.8
20260504010548 13 0 0.0 1.6 0.00 0.18 0.00 95 1015.8
20260504010050 13 0 0.0 1.6 0.00 0.18 0.00 95 1015.9
20260504005549 13 0 0.0 1.6 0.00 0.18 0.00 95 1015.8
20260504005053 13 0 0.0 1.6 0.00 0.18 0.00 95 1015.8
20260504004556 13 96 0.0 1.6 0.00 0.18 0.00 95 1015.9
20260504004049 13 96 0.0 3.2 0.00 0.18 0.00 95 1015.8
20260504003548 13 0 0.0 4.8 0.00 0.18 0.00 95 1015.9
20260504003058 13 45 1.6 4.8 0.00 0.18 0.00 95 1016.0
20260504002548 13 79 0.0 3.2 0.00 0.18 0.00 95 1016.0
20260504002051 13 0 0.0 1.6 0.00 0.18 0.00 95 1016.0
20260504001555 13 0 0.0 3.2 0.00 0.18 0.00 95 1016.2
20260504001050 13 0 0.0 3.2 0.00 0.18 0.00 95 1016.1
20260504000548 13 83 1.6 3.2 0.00 0.18 0.00 95 1015.9
20260504000107 13 84 0.0 1.6 0.00 0.18 0.00 95 1016.2
20260503235551 13 0 0.0 3.2 0.00 0.18 0.00 95 1016.1
20260503235049 14 0 0.0 3.2 0.00 0.18 0.00 95 1016.2
20260503234558 13 0 1.6 3.2 0.00 0.18 0.00 95 1016.2
20260503234048 13 0 0.0 1.6 0.00 0.18 0.00 95 1016.4
20260503233549 13 0 0.0 1.6 0.00 0.18 0.00 95 1016.3
20260503233052 13 0 0.0 0.0 0.00 0.18 0.00 95 1016.4
20260503232548 13 0 0.0 1.6 0.00 0.18 0.00 95 1016.4
20260503232048 13 0 0.0 1.6 0.00 0.18 0.00 95 1016.5
20260503231554 13 0 0.0 3.2 0.00 0.18 0.00 95 1016.6
20260503231049 13 84 0.0 3.2 0.00 0.18 0.00 95 1016.4
20260503230550 13 0 1.6 3.2 0.00 0.18 0.00 95 1016.5
20260503230052 13 84 0.0 3.2 0.00 0.18 0.00 95 1016.5
20260503225548 13 0 0.0 3.2 0.00 0.18 0.00 95 1016.5
20260503225048 13 84 0.0 3.2 0.00 0.18 0.00 95 1016.6
20260503224600 13 83 0.0 3.2 0.00 0.18 0.00 95 1016.6
20260503224048 13 0 0.0 4.8 0.00 0.18 0.00 95 1016.5
20260503223547 13 45 0.0 4.8 0.00 0.18 0.00 95 1016.6
20260503223054 13 43 3.2 4.8 0.00 0.18 0.00 95 1016.6
20260503222548 13 41 1.6 4.8 0.00 0.18 0.00 95 1016.5
20260503222051 13 36 3.2 4.8 0.00 0.18 0.00 95 1016.6
20260503221601 13 59 3.2 4.8 0.00 0.18 0.00 95 1016.7
20260503221053 13 90 0.0 3.2 0.00 0.18 0.00 95 1016.7
20260503220549 13 89 0.0 4.8 0.03 0.18 0.00 95 1016.6
20260503220052 13 0 0.0 4.8 0.03 0.18 0.00 95 1016.8
20260503215548 13 0 1.6 4.8 0.03 0.18 0.18 94 1016.8
20260503215048 13 256 0.0 4.8 0.03 0.18 0.18 94 1016.8
20260503214559 13 132 1.6 8.0 0.03 0.18 0.18 94 1016.7
20260503214051 13 9 1.6 8.0 0.03 0.18 0.18 94 1016.6
20260503213550 13 288 4.8 8.0 0.03 0.18 0.18 94 1016.7
20260503213102 13 331 0.0 4.8 0.05 0.18 0.18 94 1016.7
20260503212550 13 90 0.0 6.4 0.05 0.18 0.18 94 1016.7
20260503212050 13 60 1.6 8.0 0.05 0.18 0.18 94 1016.8
20260503211556 13 6 3.2 8.0 0.03 0.15 0.15 94 1016.7
20260503211053 13 64 1.6 4.8 0.05 0.15 0.15 94 1016.9
20260503210550 13 90 0.0 6.4 0.03 0.13 0.13 94 1016.7
20260503210050 13 0 1.6 6.4 0.03 0.13 0.13 94 1016.6
20260503205550 13 336 0.0 6.4 0.05 0.13 0.13 94 1016.7
20260503205051 13 92 1.6 6.4 0.05 0.13 0.13 94 1016.6
20260503204614 13 36 3.2 6.4 0.05 0.13 0.13 94 1016.5
20260503204050 13 31 3.2 6.4 0.08 0.13 0.13 94 1016.6
20260503203549 13 19 1.6 6.4 0.08 0.13 0.13 94 1016.5
20260503203054 14 17 1.6 3.2 0.05 0.10 0.10 94 1016.5
20260503202553 14 301 0.0 8.0 0.05 0.10 0.10 94 1016.6
20260503202050 13 301 4.8 9.7 0.08 0.10 0.10 94 1016.5
20260503201552 13 328 3.2 9.7 0.08 0.10 0.10 94 1016.4
20260503201049 13 286 3.2 6.4 0.05 0.08 0.08 93 1016.2
20260503200548 13 306 1.6 8.0 0.05 0.08 0.08 93 1016.3
20260503200053 13 311 3.2 8.0 0.05 0.08 0.08 93 1016.3
20260503195548 13 14 1.6 8.0 0.03 0.08 0.08 93 1016.0
20260503195048 13 296 1.6 9.7 0.03 0.08 0.08 93 1015.9
20260503194555 13 312 3.2 9.7 0.00 0.05 0.05 93 1015.8
20260503194048 13 330 3.2 11.3 0.00 0.05 0.05 92 1015.8
20260503193552 13 0 1.6 14.5 0.00 0.05 0.05 92 1015.8
20260503193059 14 297 4.8 14.5 0.00 0.05 0.05 92 1015.7
20260503192550 14 301 4.8 16.1 0.00 0.05 0.05 92 1015.7
20260503192050 14 312 8.0 16.1 0.00 0.03 0.03 91 1015.4
20260503191611 14 287 6.4 19.3 0.00 0.03 0.03 91 1015.5
20260503191048 15 57 3.2 19.3 0.00 0.03 0.03 91 1015.4
20260503190548 15 311 6.4 12.9 0.00 0.03 0.03 90 1015.5
20260503190055 15 292 3.2 11.3 0.00 0.03 0.03 90 1015.4
20260503185549 15 261 1.6 11.3 0.00 0.03 0.03 90 1015.2
20260503185048 15 68 4.8 9.7 0.00 0.03 0.03 90 1015.2
20260503184550 15 0 1.6 9.7 0.00 0.03 0.03 91 1015.1
20260503184051 15 22 4.8 9.7 0.00 0.03 0.03 90 1015.1
20260503183549 15 103 1.6 8.0 0.00 0.03 0.03 90 1015.1
20260503183052 15 109 1.6 11.3 0.00 0.03 0.03 90 1015.0
20260503182551 15 264 3.2 16.1 0.00 0.03 0.03 90 1015.0
20260503182050 15 7 3.2 16.1 0.00 0.03 0.03 89 1014.9
20260503181556 15 332 6.4 12.9 0.00 0.03 0.03 89 1014.9
20260503181048 15 24 4.8 14.5 0.00 0.03 0.03 88 1014.8
20260503180551 15 301 6.4 14.5 0.00 0.03 0.03 88 1014.8
20260503180249 15 328 8.0 12.9 0.00 0.03 0.03 88 1014.8
20260503174556 15 309 8.0 16.1 0.00 0.03 0.03 89 1014.9
20260503174048 15 311 8.0 16.1 0.00 0.03 0.03 89 1015.0
20260503173548 15 299 8.0 16.1 0.00 0.03 0.03 89 1014.9
20260503173100 15 296 4.8 12.9 0.00 0.03 0.03 89 1014.8
20260503172831 15 334 1.6 20.9 0.00 0.03 0.03 90 1015.0
20260503171048 15 303 8.0 17.7 0.00 0.03 0.03 88 1014.7
20260503170552 15 12 9.7 16.1 0.00 0.03 0.03 88 1015.1
20260503170105 16 339 6.4 14.5 0.00 0.03 0.03 88 1015.1
20260503160109 17 7 9.7 16.1 0.00 0.00 0.00 81 1014.6
20260503150549 20 61 6.4 11.3 0.00 0.00 0.00 69 1015.1
20260503131050 19 126 1.6 9.7 0.00 0.00 0.00 73 1016.4
20260503130551 18 148 3.2 9.7 0.00 0.00 0.00 73 1016.4
20260503110550 16 69 8.0 17.7 0.00 0.00 0.00 82 1017.4
20260503081048 14 124 1.6 9.7 0.00 0.00 0.00 93 1017.9
20260503080551 13 51 1.6 9.7 0.00 0.00 0.00 94 1017.9
20260503072548 13 358 4.8 8.0 0.00 0.00 0.00 94 1017.9
20260503072048 13 64 0.0 4.8 0.00 0.00 0.00 94 1018.0
20260503071612 13 119 1.6 6.4 0.00 0.00 0.00 94 1018.1
20260503071048 13 17 3.2 6.4 0.00 0.00 0.00 93 1018.0
20260503070548 13 10 1.6 6.4 0.00 0.00 0.00 93 1018.0